Location: Waco, TX
(31.5480°N, 97.1670°W)
Time: 09:44:31
(UTC-05:00)

ISS - Pass Details

Date: 17 October 2018
Orbit: 403 x 408 km, 51.6° (Epoch: 16 October)

Event Time Altitude Azimuth Distance (km) Brightness Sun altitude
Rises 10:43:23 0° 242° (WSW) 2,310 -0.2 35.5°
Reaches altitude 10° 10:45:34 10° 252° (WSW) 1,455 -1.2 35.8°
Maximum altitude 10:48:34 33° 319° (NW) 696 -2.8 36.3°
Drops below altitude 10° 10:51:35 10° 27° (NNE) 1,464 -1.1 36.7°
Sets 10:53:48 0° 37° (NE) 2,328 0.0 37.1°
